Alamosa, CO

5:15 AM MDT on May 26, 2017 (GMT -0600)
San Luis Valley Regional / Bergman Field

Weather History for KALS - May, 2014

Change the Weather History Date:

Tuesday, May 27, 2014

  Actual Average Record
Temperature  
Mean Temperature 58 °F 54 °F  
Max Temperature 81 °F 73 °F 84 °F (1951)
Min Temperature 34 °F 36 °F 25 °F (1950)
Degree Days  
Heating Degree Days 7 11  
Month to date heating degree days 418 387  
Since 1 July heating degree days 8527 8387  
Cooling Degree Days 0 0  
Month to date cooling degree days 0 0  
Year to date cooling degree days 0 0  
Growing Degree Days 8 (Base 50)    
Moisture  
Dew Point 31 °F    
Average Humidity 52    
Maximum Humidity 92    
Minimum Humidity 11    
Precipitation  
Precipitation 0.00 in 0.02 in 0.68 in (1970)
Month to date precipitation 0.22 0.51  
Year to date precipitation 1.80 2.15  
Snow  
Snow 0.00 in 0.00 in T in (1992)
Month to date snowfall 1.3 0.9  
Since 1 July snowfall 39.8 27.6  
Snow Depth 0.00 in    
Sea Level Pressure  
Sea Level Pressure 30.05 in    
Wind  
Wind Speed 6 mph (North)    
Max Wind Speed 17 mph    
Max Gust Speed 23 mph    
Visibility 10 miles    
Events      
T = Trace of Precipitation, MM = Missing Value Source: NWS Daily Summary

Daily Weather History Graph

Daily Weather History Graph

Search for Another Location

Airport or City:

Trip Planner

Search our weather history database for the weather conditions in past years. The results will help you decide how hot, cold, wet, or windy it might be!

Date:

Astronomy

May. 27, 2014 Rise Set
Actual Time 5:46 AM MDT 8:15 PM MDT
Civil Twilight 5:16 AM MDT 8:45 PM MDT
Nautical Twilight 4:38 AM MDT 9:22 PM MDT
Astronomical Twilight 3:57 AM MDT 10:04 PM MDT
Moon 5:08 AM MDT (5/27) 7:21 PM MDT (5/27)
Length of Visible Light 15h 29m
Length of Day
14h 29m
Waning Crescent, 1% of the Moon is Illuminated
May 27
Waning Crescent
May 28
New
Jun 5
First Quarter
Jun 12
Full
Jun 19
Last Quarter

Hourly Weather History & Observations

Time (MDT) Temp. Windchill Dew Point Humidity Pressure Visibility Wind Dir Wind Speed Gust Speed Precip Events Conditions
12:52 AM 45.0 °F 40.6 °F 36.0 °F 71% 30.03 in 10.0 mi WSW 8.1 mph - N/A   Clear
1:52 AM 43.0 °F - 35.1 °F 74% 30.04 in 10.0 mi Calm Calm - N/A   Clear
2:52 AM 41.0 °F - 35.1 °F 79% 30.04 in 10.0 mi Calm Calm - N/A   Clear
3:52 AM 39.0 °F 35.7 °F 36.0 °F 89% 30.06 in 10.0 mi South 4.6 mph - N/A   Clear
4:52 AM 36.0 °F - 33.1 °F 89% 30.07 in 10.0 mi Calm Calm - N/A   Clear
5:52 AM 34.0 °F 29.8 °F 30.9 °F 89% 30.12 in 10.0 mi South 4.6 mph - N/A   Clear
6:52 AM 43.0 °F - 37.9 °F 82% 30.12 in 10.0 mi Calm Calm - N/A   Clear
7:52 AM 50.0 °F - 39.0 °F 66% 30.12 in 10.0 mi Calm Calm - N/A   Clear
8:52 AM 59.0 °F - 36.0 °F 42% 30.09 in 10.0 mi Variable 4.6 mph - N/A   Clear
9:52 AM 62.1 °F - 37.0 °F 39% 30.08 in 10.0 mi Calm Calm - N/A   Clear
10:52 AM 68.0 °F - 35.1 °F 30% 30.08 in 10.0 mi North 8.1 mph - N/A   Clear
11:52 AM 73.0 °F - 32.0 °F 22% 30.06 in 10.0 mi NNW 8.1 mph - N/A   Clear
12:52 PM 73.9 °F - 24.1 °F 16% 30.04 in 10.0 mi NNW 8.1 mph 17.3 mph N/A   Clear
1:52 PM 78.1 °F - 24.1 °F 14% 30.02 in 10.0 mi NW 10.4 mph 16.1 mph N/A   Clear
2:52 PM 79.0 °F - 21.0 °F 12% 30.01 in 10.0 mi NE 10.4 mph 20.7 mph N/A   Clear
3:52 PM 78.1 °F - 19.9 °F 11% 30.00 in 10.0 mi Calm Calm - N/A   Clear
4:52 PM 80.1 °F - 21.0 °F 11% 30.00 in 10.0 mi North 10.4 mph - N/A   Clear
5:52 PM 75.9 °F - 21.9 °F 13% 30.02 in 10.0 mi North 8.1 mph - N/A   Partly Cloudy
6:52 PM 75.9 °F - 24.1 °F 15% 29.99 in 10.0 mi NNW 8.1 mph - N/A   Clear
7:52 PM 70.0 °F - 34.0 °F 27% 30.01 in 10.0 mi East 10.4 mph - N/A   Partly Cloudy
8:52 PM 66.0 °F - 36.0 °F 33% 30.00 in 10.0 mi ESE 9.2 mph - N/A   Scattered Clouds
9:52 PM 64.0 °F - 35.1 °F 34% 30.03 in 10.0 mi NE 13.8 mph 20.7 mph N/A   Overcast
10:52 PM 59.0 °F - 33.1 °F 38% 30.03 in 10.0 mi WSW 6.9 mph - N/A   Partly Cloudy
11:52 PM 55.9 °F - 35.1 °F 45% 30.03 in 10.0 mi Variable 4.6 mph - N/A   Clear